Location: Linz
(48.3300°N, 14.3000°E)
Time: 05:24:54
(UTC+01:00)

Envisat - Pass Details

Date: 12 November 2017
Orbit: 764 x 766 km, 98.2° (Epoch: 17 November)

Event Time Altitude Azimuth Distance (km) Brightness Sun altitude
Exits shadow 20:48:45 11° 322° (NW) 2,241 5.9 -42.9°
Drops below altitude 10° 20:48:53 10° 323° (NW) 2,284 5.9 -42.9°
Sets 20:51:40 0° 337° (NNW) 3,243 6.8 -43.3°
